sat.trackr.live / text

‹ back to catalog

STARLINK-35755

NORAD 67163 · 2025-303A

PAYLOAD ACTIVE UNKNOWN

§ Identity

Operator
Country
US
Launch date
2025-12-17
Launch site
AFETR
Launch vehicle
Mass (kg)
RCS (m²)

Purposes: comms

External: N2YO · Heavens-Above · Gunter

§ Orbital elements

Epoch: 2026-09-20T03:18:28.531008Z

Period
94.27 min
Inclination
42.9993°
Eccentricity
0.0000895
Mean motion
15.27586738 rev/d
Perigee alt
482.4 km
Apogee alt
483.6 km
Semi-major
6,861.2 km
B*
5.0480e-4
RAAN
292.5619°
Arg perigee
245.4798°
Mean anomaly
114.5960°
Rev number
4,247

§ Raw data

STARLINK-357551 67163U 25303A   26263.13783022  .00013657  00000+0  50480-3 0  99922 67163  42.9993 292.5619 0000895 245.4798 114.5960 15.27586738 42471

JSON: /api/v1/satellites/67163 · /tle

For live sub-satellite position, see the globe view (requires WebGL).

§ Visibility from observer

Set your observer location to see the next 7 days of passes ≥ 10°. The values pass through the URL so the page stays shareable.

No JS? Fill the form by hand. The geolocation button needs JavaScript.